[[{"header":{"parameterUnit":"m.s-1","parameterCategory":1,"la1":30.2991,"la2":30.254,"lo1":-89.0895,"lo2":-89.0444,"dy":0.0017,"dx":0.0017,"nx":28,"ny":28,"refTime":"2024-10-21T09:00:00:Z","depth":0,"parameterNumber":2,"parameterNumberName":"U-component_of_WINDS"},"data":[0,0,0,0,0,0,0,0,0,0,0,0,0,0,0,0,0,0,0,0,0,0,0,0,0,0,0,0,0,0,0,0,0,0,0,0,0,0,0,0,0,0,0,0,0,0,0,0,0,0,0,0,0,0,0,0,0,0,0.544,0.544,0,0.5495,0.5496,0.5496,0.5549,0.5549,0.555,0.5551,0.5605,0.5606,0.5607,0,0,0,0,0,0,0,0,0,0,0,0,0,0.5378,0.5378,0.544,0.5441,0.5441,0.5495,0.5496,0.5496,0.5549,0.5549,0.555,0.5551,0.5605,0.5606,0.5607,0,0,0,0,0,0,0,0,0,0,0,0,0,0.5416,0.5379,0.544,0.5474,0.5477,0.5495,0.5496,0.5497,0.5548,0.5549,0.555,0.5551,0.5604,0.5606,0.5607,0.5594,0,0,0.5611,0.5611,0,0,0,0,0,0,0,0,0.5413,0.5418,0.5468,0.5471,0.5476,0.5516,0.5494,0.5529,0.5548,0.5521,0.5551,0.5552,0.5574,0.5578,0.5586,0.5597,0.5599,0.5611,0.5611,0.5612,0.5612,0,0,0,0,0,0,0,0.5411,0.5416,0.5462,0.5469,0.5473,0.5486,0.5492,0.5501,0.5542,0.5524,0.5528,0.5534,0.5577,0.5585,0.5588,0.56,0.5611,0.5612,0.5613,0.5613,0.5602,0.5601,0,0,0,0,0,0,0.5403,0.5413,0.546,0.5463,0.5446,0.5486,0.5493,0.5502,0.5542,0.5549,0.5533,0.5536,0.5582,0.5586,0.559,0.5577,0.5612,0.5613,0.5614,0.5603,0.5602,0.5601,0,0,0,0,0,0,0.5402,0.5407,0.5458,0.5439,0.5447,0.5486,0.5495,0.5503,0.5511,0.5548,0.5556,0.5534,0.5583,0.5588,0.5593,0.558,0.5614,0.5615,0.5604,0.5603,0.5601,0.5551,0,0,0,0,0,0,0.54,0.5406,0.5402,0.5439,0.5448,0.546,0.5495,0.5503,0.5513,0.5518,0.5551,0.5558,0.5584,0.5591,0.5594,0.5582,0.5616,0.5605,0.5603,0.5602,0.5554,0.5548,0.5543,0,0,0,0,0,0.5397,0.5386,0.5402,0.5407,0.5444,0.5459,0.5464,0.5495,0.5512,0.5508,0.5532,0.5557,0.5581,0.5591,0.5595,0.5583,0.5606,0.5604,0.5602,0.5557,0.5549,0.5543,0,0,0,0,0,0,0.5345,0.5391,0.5409,0.5409,0.543,0.5468,0.5464,0.5487,0.5503,0.5506,0.5544,0.5551,0.5551,0.5568,0.5578,0.5572,0.5597,0.5595,0.5561,0.5555,0.5549,0.5544,0.5617,0,0,0,0,0,0.5334,0.5344,0.5383,0.5379,0.5389,0.5424,0.5432,0.5455,0.5477,0.5486,0.551,0.5531,0.5543,0.555,0.5563,0.5557,0.5565,0.5551,0.5546,0.5541,0.5538,0.5535,0.5529,0.5593,0.5593,0.5593,0,0,0.5311,0.5337,0.534,0.5369,0.5388,0.5396,0.5431,0.5438,0.5444,0.5487,0.5492,0.5511,0.5536,0.5535,0.5536,0.5549,0.5523,0.5538,0.5534,0.5534,0.5532,0.5526,0.5521,0.5591,0.5592,0.5592,0,0,0.5271,0.5293,0.5292,0.531,0.5338,0.5362,0.5361,0.5396,0.541,0.5416,0.5448,0.5455,0.5476,0.5492,0.5503,0.547,0.5493,0.5473,0.5443,0.544,0.5435,0.5431,0.5417,0.5412,0.5471,0.5471,0.5471,0,0.5238,0.5252,0.5288,0.5293,0.5304,0.5344,0.5342,0.5358,0.5388,0.5395,0.541,0.5436,0.5456,0.5458,0.545,0.5458,0.5458,0.5469,0.5433,0.5429,0.5426,0.5413,0.5408,0.5469,0.5469,0.5469,0.5469,0,0.521,0.5219,0.5214,0.5243,0.5254,0.5256,0.5291,0.5297,0.5319,0.5341,0.5346,0.5372,0.539,0.5393,0.5414,0.5398,0.5406,0.5426,0.5451,0.5416,0.5405,0.5401,0.5465,0.5466,0.5466,0.5467,0,0,0.5138,0.5187,0.5185,0.5198,0.5232,0.5239,0.5242,0.5261,0.5266,0.5286,0.5288,0.5305,0.5324,0.5336,0.536,0.5357,0.5327,0.5378,0.5379,0.5366,0.531,0.5293,0.5287,0.5343,0.5343,0.5342,0.5307,0,0.5104,0.5112,0.5144,0.5143,0.5151,0.5189,0.5192,0.5212,0.5233,0.5242,0.5265,0.5276,0.5301,0.5308,0.5308,0.5331,0.5316,0.5334,0.5345,0.5345,0.5335,0.5281,0.5264,0.5229,0.5303,0.5302,0.5302,0,0.5064,0.5082,0.5081,0.5114,0.5119,0.5121,0.514,0.5149,0.5173,0.5188,0.5202,0.5228,0.5233,0.5257,0.5263,0.5275,0.5281,0.5293,0.5293,0.5294,0.532,0.5279,0.5219,0.5213,0.5296,0.5296,0.5297,0,0.501,0.5034,0.5036,0.5047,0.5086,0.5086,0.5102,0.5127,0.5136,0.5153,0.5159,0.5177,0.5185,0.5198,0.5227,0.5243,0.5229,0.5257,0.5241,0.524,0.5235,0.5234,0.5173,0.5242,0.5242,0.5242,0.5242,0,0.4967,0.4965,0.5013,0.5014,0.5012,0.5049,0.5046,0.5066,0.5088,0.5093,0.5127,0.5131,0.5171,0.5179,0.5203,0.5203,0.5207,0.5219,0.5225,0.5215,0.5213,0.5218,0.5221,0.524,0.5241,0.5241,0.5241,0,0.4906,0.4938,0.4943,0.498,0.4989,0.4986,0.5017,0.5019,0.5043,0.5049,0.5052,0.5088,0.5099,0.5131,0.515,0.5166,0.5159,0.5172,0.5151,0.5154,0.5136,0.5137,0.5075,0.5068,0.5142,0.5141,0.5141,0,0.4875,0.4874,0.4911,0.4918,0.4933,0.4942,0.4952,0.4988,0.4996,0.5023,0.5022,0.5036,0.5049,0.5066,0.5093,0.5108,0.5119,0.5097,0.5122,0.5111,0.5117,0.5116,0.5115,0.5091,0.509,0.5089,0.5088,0,0.4817,0.4833,0.4846,0.4864,0.4875,0.4891,0.4909,0.4912,0.4952,0.496,0.4972,0.4982,0.5002,0.5015,0.5035,0.5051,0.5075,0.5081,0.5077,0.5066,0.5054,0.5058,0.5134,0.5081,0.5082,0.5083,0.5083,0.5083,0.4769,0.477,0.4796,0.4809,0.4826,0.4842,0.4846,0.487,0.4881,0.49,0.4921,0.4931,0.4954,0.4983,0.4997,0.5004,0.5017,0.5013,0.5012,0.501,0.5004,0.5054,0.5008,0.5008,0.5008,0.5009,0.5009,0,0.4711,0.473,0.4742,0.4766,0.4776,0.48,0.4821,0.4828,0.4836,0.4856,0.4869,0.4882,0.4895,0.4924,0.4939,0.4939,0.4951,0.4942,0.4941,0.4944,0.4992,0.4993,0.4932,0.4932,0.4932,0.4932,0.4932,0.4932,0.4682,0.4685,0.4704,0.4714,0.4733,0.4743,0.4753,0.4767,0.4784,0.4798,0.4809,0.4828,0.4851,0.4868,0.4881,0.4889,0.4892,0.4879,0.489,0.4934,0.4941,0.4948,0.4949,0.488,0.488,0.4841,0.4841,0.4841]},{"header":{"parameterUnit":"m.s-1","parameterCategory":1,"la1":30.2991,"la2":30.254,"lo1":-89.0895,"lo2":-89.0444,"dy":0.0017,"dx":0.0017,"nx":28,"ny":28,"refTime":"2024-10-21T09:00:00:Z","depth":0,"parameterNumber":3,"parameterNumberName":"V-component_of_WINDS"},"data":[0,0,0,0,0,0,0,0,0,0,0,0,0,0,0,0,0,0,0,0,0,0,0,0,0,0,0,0,0,0,0,0,0,0,0,0,0,0,0,0,0,0,0,0,0,0,0,0,0,0,0,0,0,0,0,0,0,0,0.7177,0.7177,0,0.7139,0.7139,0.7138,0.7138,0.7138,0.7139,0.7139,0.7096,0.7094,0.7093,0,0,0,0,0,0,0,0,0,0,0,0,0,0.7246,0.7244,0.7177,0.7177,0.7176,0.7139,0.7139,0.7138,0.7138,0.7139,0.7139,0.714,0.7096,0.7094,0.7092,0,0,0,0,0,0,0,0,0,0,0,0,0,0.7212,0.7244,0.7177,0.7172,0.7171,0.7139,0.7139,0.7138,0.7138,0.7139,0.7139,0.714,0.7097,0.7095,0.7092,0.7062,0,0,0.7085,0.7084,0,0,0,0,0,0,0,0,0.7214,0.721,0.7173,0.7172,0.7171,0.7144,0.7147,0.7113,0.7138,0.715,0.7139,0.714,0.7111,0.7107,0.7099,0.706,0.7058,0.7085,0.7083,0.7082,0.7081,0,0,0,0,0,0,0,0.7217,0.7212,0.7162,0.7173,0.7171,0.717,0.7166,0.714,0.7127,0.7149,0.7149,0.7145,0.7111,0.7101,0.7098,0.7058,0.7085,0.7082,0.7081,0.708,0.6992,0.6991,0,0,0,0,0,0,0.7221,0.7214,0.7163,0.7161,0.7195,0.7168,0.7164,0.7152,0.7127,0.7124,0.7144,0.7145,0.7105,0.71,0.7096,0.7059,0.7082,0.708,0.7078,0.6993,0.6992,0.6991,0,0,0,0,0,0,0.7222,0.7216,0.7165,0.7187,0.7181,0.7166,0.7153,0.7151,0.7141,0.7123,0.7121,0.7137,0.7105,0.7099,0.7071,0.7057,0.7079,0.7076,0.6994,0.6993,0.6991,0.6984,0,0,0,0,0,0,0.7224,0.7217,0.7206,0.7187,0.718,0.7142,0.7152,0.715,0.7138,0.7138,0.7116,0.7113,0.7105,0.7074,0.7068,0.7054,0.7075,0.6995,0.6993,0.6992,0.6986,0.6983,0.6981,0,0,0,0,0,0.7227,0.7205,0.7206,0.72,0.7166,0.7141,0.7136,0.7129,0.7137,0.7125,0.7114,0.7114,0.706,0.7072,0.7065,0.705,0.6996,0.6994,0.6992,0.6987,0.6983,0.6981,0,0,0,0,0,0,0.7221,0.7202,0.7203,0.7175,0.716,0.7141,0.7126,0.7126,0.7107,0.7109,0.7099,0.7094,0.7066,0.7055,0.7068,0.7019,0.7029,0.7025,0.7027,0.7024,0.7021,0.7024,0.7073,0,0,0,0,0,0.7217,0.72,0.7183,0.716,0.7153,0.7141,0.713,0.7126,0.7109,0.7102,0.7088,0.7071,0.705,0.7036,0.7016,0.6984,0.6979,0.6971,0.6968,0.6966,0.6963,0.6944,0.694,0.6984,0.6984,0.6984,0,0,0.7208,0.7195,0.7184,0.7159,0.7146,0.7127,0.7135,0.7115,0.71,0.7098,0.7071,0.706,0.704,0.701,0.6995,0.7,0.6949,0.6964,0.6962,0.696,0.6942,0.6937,0.6934,0.6983,0.6983,0.6984,0,0,0.7181,0.717,0.7149,0.7137,0.7119,0.7111,0.7106,0.7088,0.7081,0.7054,0.7052,0.7034,0.6998,0.6984,0.6972,0.694,0.6938,0.6933,0.6919,0.6901,0.6898,0.6895,0.6882,0.6878,0.693,0.693,0.693,0,0.7171,0.7143,0.7138,0.7117,0.7105,0.7105,0.7083,0.7071,0.7047,0.7038,0.7044,0.6999,0.6985,0.6951,0.6943,0.6934,0.6927,0.6935,0.6899,0.6896,0.6893,0.688,0.6876,0.693,0.693,0.693,0.693,0,0.7131,0.7112,0.7097,0.7075,0.7062,0.704,0.7031,0.7017,0.7015,0.7006,0.6978,0.6962,0.6938,0.693,0.6926,0.6895,0.6898,0.6901,0.6911,0.6888,0.6876,0.6872,0.6929,0.6929,0.6929,0.6929,0,0,0.7099,0.7075,0.707,0.7059,0.704,0.7024,0.7002,0.6981,0.6969,0.6952,0.6933,0.6903,0.6906,0.6893,0.6888,0.6872,0.6846,0.6877,0.6877,0.6871,0.6809,0.6806,0.68,0.6846,0.6845,0.6844,0.681,0,0.7069,0.7032,0.7027,0.6993,0.6974,0.6974,0.6955,0.694,0.6931,0.6913,0.6903,0.6882,0.6888,0.688,0.6865,0.6853,0.6833,0.6855,0.6826,0.6825,0.683,0.6795,0.6791,0.676,0.6806,0.6805,0.6805,0,0.7029,0.7012,0.6977,0.696,0.6952,0.6935,0.6915,0.6898,0.6881,0.6875,0.6861,0.6857,0.6833,0.6845,0.681,0.6825,0.6813,0.6805,0.6804,0.68,0.6813,0.6788,0.675,0.6745,0.6798,0.6798,0.6799,0,0.7007,0.6977,0.6952,0.6943,0.6923,0.691,0.6901,0.6885,0.6872,0.6854,0.6845,0.6824,0.6811,0.6794,0.6785,0.6794,0.6751,0.6762,0.6744,0.6744,0.6734,0.6735,0.6692,0.6728,0.6728,0.6728,0.6729,0,0.6974,0.6952,0.6942,0.6926,0.6902,0.6896,0.6871,0.6861,0.6847,0.6828,0.6826,0.6809,0.6798,0.6778,0.6771,0.6743,0.6738,0.6732,0.673,0.6731,0.6732,0.6722,0.6723,0.6727,0.6727,0.6728,0.6728,0,0.6945,0.6938,0.691,0.6894,0.6889,0.6871,0.6856,0.684,0.6832,0.6809,0.6803,0.6789,0.6766,0.6756,0.6726,0.6721,0.6689,0.6689,0.6695,0.6694,0.6677,0.6679,0.6626,0.6618,0.6661,0.666,0.666,0,0.6924,0.6907,0.6889,0.6878,0.6868,0.6849,0.6836,0.683,0.6816,0.6795,0.6781,0.6759,0.674,0.6703,0.6689,0.6667,0.6665,0.6648,0.6662,0.6664,0.6664,0.6664,0.6662,0.6645,0.6645,0.6645,0.6644,0,0.6886,0.6883,0.6866,0.6847,0.6832,0.6817,0.6802,0.6792,0.6782,0.6767,0.6744,0.673,0.6701,0.6677,0.6654,0.6643,0.6641,0.6641,0.6635,0.6636,0.664,0.6636,0.6687,0.6641,0.6642,0.6642,0.6642,0.6642,0.686,0.6845,0.683,0.681,0.6798,0.6784,0.6768,0.6759,0.674,0.6717,0.6714,0.6689,0.6671,0.664,0.6628,0.6607,0.6611,0.6604,0.6601,0.6599,0.6598,0.6644,0.6603,0.6603,0.6603,0.6603,0.6603,0,0.6821,0.6812,0.6794,0.6773,0.6757,0.676,0.6743,0.6729,0.6708,0.6692,0.6674,0.6647,0.6625,0.661,0.6587,0.6573,0.6572,0.6567,0.6567,0.6564,0.6596,0.6603,0.6568,0.6568,0.6568,0.6568,0.6568,0.6568,0.6799,0.6774,0.6769,0.6737,0.6728,0.6705,0.6695,0.6681,0.6668,0.6639,0.6621,0.6612,0.6596,0.6572,0.6551,0.6547,0.6538,0.6533,0.6529,0.6559,0.6562,0.6566,0.6572,0.6531,0.6531,0.6498,0.6498,0.6498]}]]